Time,TemperatureF,DewpointF,PressureIn,WindDirection,WindDirectionDegrees,WindSpeedMPH,WindSpeedGustMPH,Humidity,HourlyPrecipIn,Conditions,Clouds,dailyrainin,SoftwareType,DateUTC
2013-07-01 00:00:00,74.2,68.7,29.91,SSW,197,0.0,0.0,83,0.00,,,0.00,Wunderground v.1.15,2013-07-01 04:00:00,
2013-07-01 00:30:00,73.4,68.6,29.92,South,187,0.0,0.0,85,0.00,,,0.00,Wunderground v.1.15,2013-07-01 04:30:00,
2013-07-01 01:00:00,72.9,68.5,29.92,South,189,0.0,0.0,86,0.00,,,0.00,Wunderground v.1.15,2013-07-01 05:00:00,
2013-07-01 01:30:00,72.6,68.2,29.92,NE,36,0.0,0.0,86,0.13,,,0.06,Wunderground v.1.15,2013-07-01 05:30:00,
2013-07-01 02:00:00,72.4,68.0,29.92,NE,36,0.0,0.0,86,0.00,,,0.06,Wunderground v.1.15,2013-07-01 06:00:00,
2013-07-01 02:30:00,72.2,68.1,29.93,NE,35,0.0,0.0,87,0.00,,,0.06,Wunderground v.1.15,2013-07-01 06:30:00,
2013-07-01 03:00:00,72.1,68.0,29.93,NE,36,0.0,0.0,87,0.00,,,0.06,Wunderground v.1.15,2013-07-01 07:00:00,
2013-07-01 03:30:00,72.0,67.9,29.93,ESE,105,0.0,0.0,87,0.00,,,0.06,Wunderground v.1.15,2013-07-01 07:30:00,
2013-07-01 04:00:00,71.9,67.8,29.93,ESE,105,0.0,0.0,87,0.00,,,0.06,Wunderground v.1.15,2013-07-01 08:00:00,
2013-07-01 04:30:00,72.0,67.9,29.93,South,176,0.0,0.0,87,0.00,,,0.06,Wunderground v.1.15,2013-07-01 08:30:00,
2013-07-01 05:00:00,72.0,67.9,29.94,South,176,0.0,0.0,87,0.00,,,0.06,Wunderground v.1.15,2013-07-01 09:00:00,
2013-07-01 05:30:00,72.2,68.1,29.95,ENE,76,0.0,0.0,87,0.00,,,0.06,Wunderground v.1.15,2013-07-01 09:30:00,
2013-07-01 06:00:00,72.4,68.3,29.96,ENE,73,0.0,0.0,87,0.00,,,0.06,Wunderground v.1.15,2013-07-01 10:00:00,
2013-07-01 06:30:00,72.9,68.8,29.96,SW,215,0.0,0.0,87,0.00,,,0.06,Wunderground v.1.15,2013-07-01 10:30:00,
2013-07-01 07:00:00,73.5,69.1,29.96,WSW,252,0.0,0.0,86,0.00,,,0.06,Wunderground v.1.15,2013-07-01 11:00:00,
2013-07-01 07:30:00,74.5,69.7,29.97,NNE,13,0.0,2.0,85,0.00,,,0.06,Wunderground v.1.15,2013-07-01 11:30:00,
2013-07-01 08:00:00,75.8,70.3,29.97,NE,53,0.0,0.0,83,0.00,,,0.06,Wunderground v.1.15,2013-07-01 12:00:00,
2013-07-01 08:30:00,76.7,70.8,29.98,West,260,1.0,1.0,82,0.00,,,0.06,Wunderground v.1.15,2013-07-01 12:30:00,
2013-07-01 09:00:00,76.9,71.0,29.98,ESE,111,0.0,0.0,82,0.00,,,0.06,Wunderground v.1.15,2013-07-01 13:00:00,
2013-07-01 09:30:00,76.7,71.1,29.98,NNE,33,0.0,0.0,83,0.00,,,0.06,Wunderground v.1.15,2013-07-01 13:30:00,
2013-07-01 10:00:00,77.4,71.1,29.99,NE,40,0.0,0.0,81,0.00,,,0.06,Wunderground v.1.15,2013-07-01 14:00:00,
2013-07-01 10:30:00,77.8,71.1,29.99,NE,35,1.0,1.0,80,0.00,,,0.06,Wunderground v.1.15,2013-07-01 14:30:00,
2013-07-01 11:00:00,77.4,71.8,29.99,NNE,20,0.0,1.0,83,0.06,,,0.10,Wunderground v.1.15,2013-07-01 15:00:00,
2013-07-01 11:30:00,77.9,72.3,29.99,South,178,0.0,0.0,83,0.00,,,0.10,Wunderground v.1.15,2013-07-01 15:30:00,
2013-07-01 12:00:00,79.6,73.3,29.99,NE,49,1.0,1.0,81,0.00,,,0.10,Wunderground v.1.15,2013-07-01 16:00:00,
2013-07-01 12:30:00,82.7,74.8,29.99,SE,145,0.0,2.0,77,0.00,,,0.10,Wunderground v.1.15,2013-07-01 16:30:00,
2013-07-01 13:00:00,83.2,74.4,29.98,SE,131,0.0,0.0,75,0.00,,,0.10,Wunderground v.1.15,2013-07-01 17:00:00,
2013-07-01 13:30:00,82.9,74.9,29.98,ESE,103,1.0,1.0,77,0.82,,,0.18,Wunderground v.1.15,2013-07-01 17:30:00,
2013-07-01 14:00:00,81.7,75.3,29.96,NE,44,0.0,0.0,81,0.00,,,0.19,Wunderground v.1.15,2013-07-01 18:00:00,
2013-07-01 14:30:00,81.7,75.3,29.96,SE,125,1.0,1.0,81,0.00,,,0.19,Wunderground v.1.15,2013-07-01 18:30:00,
2013-07-01 15:00:00,82.4,74.5,29.96,ENE,58,1.0,1.0,77,0.00,,,0.19,Wunderground v.1.15,2013-07-01 19:00:00,
2013-07-01 15:30:00,82.0,73.7,29.96,ESE,115,1.0,1.0,76,0.00,,,0.19,Wunderground v.1.15,2013-07-01 19:30:00,
2013-07-01 16:00:00,82.1,74.2,29.97,West,274,1.0,1.0,77,0.00,,,0.19,Wunderground v.1.15,2013-07-01 20:00:00,
2013-07-01 16:30:00,82.1,73.4,29.98,WSW,250,2.0,2.0,75,0.00,,,0.19,Wunderground v.1.15,2013-07-01 20:30:00,
2013-07-01 17:00:00,78.5,72.2,29.99,WSW,246,1.0,1.0,81,0.00,,,0.19,Wunderground v.1.15,2013-07-01 21:00:00,
2013-07-01 17:30:00,77.4,71.5,29.99,West,267,1.0,1.0,82,0.00,,,0.19,Wunderground v.1.15,2013-07-01 21:30:00,
2013-07-01 18:00:00,76.7,71.1,30.00,WSW,250,0.0,1.0,83,0.00,,,0.19,Wunderground v.1.15,2013-07-01 22:00:00,
2013-07-01 18:30:00,77.5,72.3,29.99,East,99,0.0,0.0,84,0.00,,,0.19,Wunderground v.1.15,2013-07-01 22:30:00,
2013-07-01 19:00:00,78.1,72.2,30.00,East,99,0.0,0.0,82,0.00,,,0.19,Wunderground v.1.15,2013-07-01 23:00:00,
2013-07-01 19:30:00,77.5,71.6,30.01,ENE,58,0.0,0.0,82,0.00,,,0.19,Wunderground v.1.15,2013-07-01 23:30:00,
2013-07-01 20:00:00,76.8,71.2,30.02,SSW,204,0.0,0.0,83,0.00,,,0.19,Wunderground v.1.15,2013-07-02 00:00:00,
2013-07-01 20:30:00,76.2,70.7,30.03,NE,50,0.0,0.0,83,0.00,,,0.19,Wunderground v.1.15,2013-07-02 00:30:00,
2013-07-01 21:00:00,75.5,70.3,30.03,ESE,105,0.0,1.0,84,0.00,,,0.19,Wunderground v.1.15,2013-07-02 01:00:00,
2013-07-01 21:30:00,75.2,70.0,30.05,NE,41,0.0,1.0,84,0.00,,,0.19,Wunderground v.1.15,2013-07-02 01:30:00,
2013-07-01 22:00:00,74.7,69.5,30.05,SE,132,1.0,1.0,84,0.00,,,0.19,Wunderground v.1.15,2013-07-02 02:00:00,
2013-07-01 22:30:00,74.3,69.1,30.06,SSW,205,0.0,0.0,84,0.00,,,0.19,Wunderground v.1.15,2013-07-02 02:30:00,
2013-07-01 23:00:00,74.2,69.1,30.05,East,92,0.0,0.0,84,0.00,,,0.19,Wunderground v.1.15,2013-07-02 03:00:00,
2013-07-01 23:30:00,74.1,69.0,30.05,South,181,0.0,0.0,84,0.00,,,0.19,Wunderground v.1.15,2013-07-02 03:30:00,